Startseite
Über Mich
AHP4
Galerie
Sehschlangen
Tourenbuch
Bookmarks
Elektronik
Bewertung
Geschichten
[Tagesmessung] [Jahreswerte] [Information]

Messwerte vom 29.12.2021

Die letzten Messwerte von 23:58:47 Uhr:
KategorieMesswert
Temperatur [°C]6
Luftdruck [mBar]991
Sonneneinstrahlung0
Wind [km/h]1 aus Südwest
Niederschlag [l/m²]0
rel.Luftfeucht.96.6%
CO2 [ppm]448

Diagramme
Messwerte vom 29.12.2021
Tagesaggregation
KategorieMinimumMaximumSchnittSumme
Temperatur [°C]275.1854
Luftdruck [mBar]980991987.7792
Sonneneinstrahlung19348.1146
Wind [km/h]9
rF [%]96.696.696.6
Niederschlag [l/m²]1.2875
CO2 [ppm]4301041786.7
Einordnung alsKalter Tag

Messungen an benachbarten Tagen: Zur Jahresaggregation 2021
Tabelle aller Messwerte
UhrzeitTemperatur [°C]Luftdruck [mBar]SonneWind [km/h]RichtungRegen [l/m²]rF [%]CO2 [ppm]
00:01:48 4 980 0 0 NW 0 96.6 735
00:04:46 4 980 0 0 NW 0 96.6 729
00:07:48 4 980 0 0 NW 0 96.6 727
00:10:47 3 980 0 0 NW 0 96.6 723
00:13:46 3 980 0 0 NW 0 96.6 726
00:16:48 3 980 0 0 NW 0 96.6 721
00:19:49 3 980 0 0 NW 0 96.6 723
00:22:47 3 980 0 0 NW 0 96.6 717
00:25:50 3 980 0 0 NW 0 96.6 715
00:28:48 3 980 0 0 NW 0 96.6 715
00:31:48 2 980 0 0 NW 0 96.6 723
00:34:49 2 980 0 0 NW 0 96.6 735
00:37:46 2 980 0 0 NW 0 96.6 741
00:40:48 2 980 0 0 NW 0 96.6 729
00:43:48 2 980 0 0 NW 0 96.6 721
00:46:47 2 981 0 0 NW 0 96.6 718
00:49:49 2 980 0 0 NW 0 96.6 712
00:52:50 2 981 0 0 NW 0 96.6 715
00:55:47 2 980 0 0 NW 0 96.6 715
00:58:47 2 980 0 0 S 0 96.6 714
01:01:46 2 980 0 0 S 0 96.6 711
01:04:46 2 980 0 0 S 0 96.6 706
01:07:47 2 980 0 0 S 0 96.6 712
01:10:45 2 981 0 0 S 0 96.6 717
01:13:46 2 981 0 0 S 0 96.6 721
01:16:45 2 980 0 0 S 0 96.6 715
01:19:46 2 981 0 0 SW 0 96.6 721
01:22:47 2 981 0 0 SW 0 96.6 725
01:25:47 2 981 0 0 S 0 96.6 718
01:28:46 2 981 0 0 S 0 96.6 713
01:31:48 3 981 0 0 NW 0 96.6 715
01:34:47 3 981 0 0 NW 0 96.6 722
01:37:47 3 981 0 0 NW 0 96.6 730
01:40:47 3 981 0 0 NW 0 96.6 728
01:43:48 3 981 0 0 NW 0 96.6 723
01:46:45 3 981 0 0 NW 0 96.6 731
01:49:48 3 982 0 0 NW 0 96.6 728
01:52:48 3 982 0 0 NW 0 96.6 723
01:55:48 2 981 0 0 NW 0 96.6 724
01:58:49 2 982 0 0 NW 0 96.6 721
02:01:48 2 982 0 0 NW 0 96.6 725
02:04:48 2 982 0 0 NW 0 96.6 725
02:07:48 2 982 0 0 NW 0 96.6 724
02:10:49 2 982 0 0 NW 0 96.6 720
02:13:48 2 983 0 0 S 0 96.6 726
02:16:47 2 982 0 0 S 0 96.6 728
02:19:47 2 983 0 0 S 0 96.6 718
02:22:46 2 983 0 0 S 0 96.6 718
02:25:48 2 982 0 0 S 0 96.6 721
02:28:48 2 982 0 0 S 0 96.6 724
02:31:46 2 983 0 0 S 0 96.6 723
02:34:47 3 983 0 1 SW 0 96.6 715
02:37:46 3 983 0 0 SW 0 96.6 713
02:40:48 3 983 0 0 SW 0 96.6 712
02:43:47 3 982 0 0 NW 0 96.6 717
02:46:48 3 983 0 0 NW 0 96.6 720
02:49:47 3 983 0 0 NW 0 96.6 723
02:52:46 3 984 0 0 O 0 96.6 717
02:55:46 3 983 0 0 SO 0 96.6 718
02:58:46 3 983 0 0 S 0 96.6 715
03:01:46 3 983 0 0 NO 0 96.6 724
03:04:45 3 983 0 0 O 0 96.6 723
03:07:47 3 983 0 0 N 0 96.6 728
03:10:45 3 983 0 0 N 0 96.6 727
03:13:45 3 983 0 0 W 0 96.6 720
03:16:46 4 983 0 0 S 0 96.6 723
03:19:46 4 983 0 0 W 0 96.6 715
03:22:48 4 984 0 1 NW 0 96.6 715
03:25:45 4 983 0 0 S 0 96.6 711
03:28:45 4 983 0 0 S 0 96.6 715
03:31:45 4 983 0 2 SO 0 96.6 709
03:34:47 4 983 0 0 N 0 96.6 721
03:37:47 4 984 0 0 SO 0 96.6 709
03:40:46 4 984 0 0 W 0 96.6 703
03:43:46 4 983 0 0 W 0 96.6 709
03:46:45 4 984 0 0 W 0 96.6 711
03:49:46 4 983 0 0 SW 0 96.6 714
03:52:48 4 983 0 0 SW 0 96.6 716
03:55:44 4 984 0 0 S 0 96.6 715
03:58:46 4 984 0 0 S 0 96.6 705
04:01:46 4 984 0 0 W 0 96.6 715
04:04:48 4 984 0 0 SO 0 96.6 720
04:07:45 4 984 0 0 S 0 96.6 720
04:10:46 4 984 0 0 S 0 96.6 721
04:13:47 4 983 0 0 O 0 96.6 718
04:16:46 4 984 0 0 S 0 96.6 718
04:19:47 4 984 0 0 W 0 96.6 720
04:22:45 4 984 0 0 W 0 96.6 714
04:25:47 4 984 0 0 SO 0 96.6 712
04:28:45 4 984 0 0 O 0 96.6 709
04:31:45 4 983 0 0 O 0 96.6 709
04:34:46 4 984 0 0 O 0 96.6 721
04:37:46 4 983 0 0 O 0 96.6 720
04:40:47 4 984 0 0 O 0 96.6 717
04:43:45 4 984 0 0 O 0 96.6 711
04:46:45 4 984 0 0 O 0 96.6 714
04:49:46 3 984 0 0 O 0 96.6 709
04:52:47 3 984 0 0 O 0 96.6 729
04:55:47 3 984 0 0 O 0 96.6 735
04:58:44 3 984 0 0 O 0 96.6 730
05:01:45 3 984 0 0 O 0 96.6 715
05:04:44 3 984 0 0 O 0 96.6 708
05:07:44 3 984 0 0 O 0 96.6 707
05:10:47 3 984 0 0 O 0 96.6 715
05:13:45 3 984 0 0 S 0 96.6 718
05:16:45 3 984 0 0 S 0 96.6 720
05:19:45 3 984 0 0 S 0 96.6 715
05:22:45 3 984 0 0 S 0 96.6 714
05:25:46 3 984 0 0 NW 0 96.6 705
05:28:48 3 984 0 0 NW 0 96.6 711
05:31:48 3 984 0 0 NW 0 96.6 716
05:34:48 3 984 0 0 NW 0 96.6 715
05:37:48 3 984 0 0 NW 0 96.6 721
05:40:47 3 984 0 0 NW 0 96.6 723
05:43:48 3 984 0 0 NW 0 96.6 724
05:46:45 3 984 0 0 W 0 96.6 720
05:49:44 3 984 0 0 W 0 96.6 724
05:52:48 3 984 0 0 W 0 96.6 723
05:55:45 3 985 0 0 W 0 96.6 715
05:58:44 3 984 0 0 W 0 96.6 715
06:01:48 3 985 0 0 SW 0 96.6 718
06:04:47 3 985 0 0 SO 0 96.6 720
06:07:46 3 985 0 0 S 0 96.6 711
06:10:45 4 985 0 0 W 0 96.6 708
06:13:47 4 984 0 0 W 0 96.6 711
06:16:44 4 984 0 0 W 0 96.6 705
06:19:45 4 984 0 0 W 0 96.6 712
06:22:46 4 985 0 0 W 0 96.6 708
06:25:46 4 985 0 0 W 0 96.6 709
06:28:46 4 985 0 0 W 0 96.6 723
06:31:48 4 985 0 2 W 0 96.6 719
06:34:46 4 985 0 1 W 0 96.6 718
06:37:47 4 986 0 0 W 0 96.6 712
06:40:45 4 986 0 0 W 0 96.6 718
06:43:48 4 986 0 0 W 0 96.6 709
06:46:45 4 985 0 0 S 0 96.6 705
06:49:45 4 985 0 0 W 0 96.6 703
06:52:45 4 986 0 0 O 0 96.6 702
06:55:45 4 986 0 0 W 0 96.6 714
06:58:45 4 986 0 0 NW 0 96.6 715
07:01:48 4 985 0 0 SW 0 96.6 712
07:04:47 4 985 0 0 NW 0 96.6 709
07:07:48 4 986 0 0 NW 0 96.6 709
07:10:47 4 986 0 0 S 0 96.6 705
07:13:46 4 986 0 0 SO 0 96.6 715
07:16:45 4 986 0 0 O 0 96.6 718
07:19:46 4 985 0 0 NW 0 96.6 723
07:22:45 4 986 0 1 NW 0 96.6 732
07:25:47 4 986 0 0 NW 0 96.6 736
07:28:46 4 987 0 0 S 0 96.6 739
07:31:46 5 986 0 0 SW 0 96.6 743
07:34:45 5 986 0 0 S 0 96.6 744
07:37:46 5 987 0 0 S 0 96.6 754
07:40:48 5 987 0 1 S 0 96.6 762
07:43:47 5 987 0 0 SO 0 96.6 759
07:46:50 5 987 0 0 W 0 96.6 749
07:49:48 5 986 0 0 SW 0 96.6 749
07:52:48 5 987 0 1 O 0 96.6 752
07:55:46 5 987 0 0 SW 0 96.6 762
07:58:46 5 987 0 4 O 0 96.6 760
08:01:47 5 987 0 0 SO 0 96.6 754
08:04:47 5 987 3 1 SW 0 96.6 756
08:07:47 5 987 5 2 S 0 96.6 761
08:10:48 5 987 8 0 S 0 96.6 769
08:13:44 5 987 13 1 W 0 96.6 772
08:16:48 5 987 13 0 SW 0 96.6 771
08:19:48 5 987 19 2 W 0 96.6 784
08:22:47 5 987 24 0 W 0 96.6 780
08:25:46 5 987 25 1 W 0 96.6 780
08:28:48 5 987 31 1 SW 0 96.6 780
08:31:48 5 987 41 0 W 0 96.6 782
08:34:49 5 987 49 1 NW 0.2575 96.6 779
08:37:48 5 987 46 1 W 0 96.6 789
08:40:47 5 987 52 3 W 0 96.6 800
08:43:47 5 987 66 1 SW 0 96.6 799
08:46:47 5 987 77 3 O 0 96.6 788
08:49:48 5 988 71 3 SW 0 96.6 782
08:52:46 5 987 60 1 SW 0 96.6 785
08:55:47 5 987 63 2 W 0 96.6 789
08:58:49 5 987 61 0 SW 0 96.6 788
09:01:50 5 987 66 2 SW 0 96.6 791
09:04:46 5 988 74 2 N 0 96.6 791
09:07:50 5 988 82 1 NW 0 96.6 795
09:10:46 5 988 81 2 W 0 96.6 788
09:13:47 5 988 86 3 SW 0 96.6 797
09:16:48 5 988 96 2 W 0 96.6 809
09:19:47 5 987 99 2 W 0 96.6 802
09:22:50 5 988 103 2 NW 0 96.6 802
09:25:47 5 987 114 1 W 0 96.6 797
09:28:48 6 988 122 1 W 0 96.6 795
09:31:47 6 988 124 0 S 0 96.6 791
09:34:46 6 987 117 0 S 0 96.6 786
09:37:47 6 988 128 0 NO 0 96.6 782
09:40:49 6 988 134 0 SO 0 96.6 782
09:43:46 6 987 147 1 W 0 96.6 787
09:46:49 6 988 141 0 W 0 96.6 789
09:49:47 6 988 143 3 S 0 96.6 803
09:52:49 6 988 142 1 SW 0 96.6 808
09:55:47 6 988 137 4 S 0 96.6 804
09:58:47 6 988 146 0 S 0 96.6 808
10:01:49 6 988 149 5 W 0 96.6 803
10:04:47 6 988 155 3 NW 0 96.6 814
10:07:50 6 988 159 4 W 0 96.6 805
10:10:47 6 988 162 3 W 0 96.6 807
10:13:50 6 988 160 1 W 0 96.6 805
10:16:48 6 987 165 4 W 0 96.6 810
10:19:49 6 988 167 4 SW 0 96.6 814
10:22:49 6 988 172 1 SW 0 96.6 817
10:25:49 6 988 178 7 W 0 96.6 817
10:28:48 6 988 176 2 W 0 96.6 821
10:31:47 6 988 173 1 S 0 96.6 822
10:34:49 6 988 168 4 NW 0 96.6 831
10:37:47 6 989 173 3 W 0 96.6 835
10:40:49 6 988 175 2 W 0 96.6 835
10:43:51 6 988 170 2 W 0 96.6 835
10:46:49 6 988 169 2 SW 0 96.6 847
10:49:49 6 988 175 0 SW 0 96.6 844
10:52:47 6 987 178 1 W 0 96.6 845
10:55:48 6 988 176 2 W 0 96.6 844
10:58:48 6 988 174 2 SW 0.2575 96.6 840
11:01:49 6 989 182 4 NW 0 96.6 835
11:04:48 6 989 186 1 W 0 96.6 844
11:07:49 6 989 190 2 SW 0 96.6 850
11:10:48 6 989 181 1 S 0 96.6 849
11:13:47 6 989 177 3 SW 0 96.6 861
11:16:48 6 988 178 1 SW 0 96.6 861
11:19:50 6 989 181 1 SW 0 96.6 858
11:22:47 6 989 177 3 W 0 96.6 856
11:25:47 6 989 180 0 W 0 96.6 849
11:28:48 6 988 182 3 W 0 96.6 831
11:31:47 6 988 183 2 W 0 96.6 826
11:34:47 6 989 189 0 W 0 96.6 826
11:37:47 7 989 184 0 S 0 96.6 839
11:40:47 7 989 179 1 S 0 96.6 837
11:43:46 7 990 181 5 W 0 96.6 847
11:46:47 7 989 185 3 SW 0 96.6 846
11:49:47 7 989 181 2 W 0 96.6 857
11:52:46 7 990 181 3 W 0 96.6 851
11:55:49 7 989 182 5 NW 0 96.6 854
11:58:49 7 990 181 2 W 0 96.6 859
12:01:48 7 988 179 4 W 0 96.6 858
12:04:47 7 989 175 0 W 0 96.6 849
12:07:45 7 989 175 3 W 0 96.6 840
12:10:47 7 989 174 2 S 0 96.6 840
12:13:47 7 990 172 5 W 0 96.6 850
12:16:45 7 989 175 3 W 0 96.6 855
12:19:48 7 990 178 5 W 0 96.6 854
12:22:49 7 990 169 2 NW 0 96.6 858
12:25:48 7 990 168 1 SW 0 96.6 855
12:28:48 7 989 172 3 W 0 96.6 849
12:31:47 7 990 172 1 W 0 96.6 849
12:34:50 7 990 164 4 W 0 96.6 852
12:37:49 7 989 172 3 SW 0 96.6 853
12:40:49 7 990 178 2 W 0 96.6 852
12:43:48 7 990 178 3 W 0 96.6 859
12:46:48 7 990 181 5 SW 0 96.6 858
12:49:49 7 990 193 1 SW 0 96.6 861
12:52:49 7 989 187 3 NW 0 96.6 856
12:55:48 7 988 191 3 SO 0 96.6 856
12:58:48 7 989 193 2 W 0 96.6 856
13:01:47 7 989 183 9 0 96.6 854
13:04:51 7 989 178 3 W 0 96.6 859
13:07:51 7 989 190 1 SW 0 96.6 861
13:10:48 7 989 186 2 W 0 96.6 858
13:13:46 7 989 171 3 O 0 96.6 840
13:16:46 7 989 166 1 S 0 96.6 837
13:19:48 7 990 171 2 W 0 96.6 828
13:22:46 7 989 173 4 W 0 96.6 843
13:25:47 7 989 176 3 W 0 96.6 837
13:28:50 7 990 185 2 SW 0 96.6 840
13:31:49 7 990 188 3 SO 0 96.6 838
13:34:47 7 990 173 2 W 0 96.6 845
13:37:47 7 990 175 2 W 0 96.6 844
13:40:50 7 990 165 3 SW 0 96.6 856
13:43:47 7 991 168 5 SW 0 96.6 857
13:46:46 7 990 166 4 W 0 96.6 858
13:49:48 7 991 152 0 W 0 96.6 855
13:52:47 7 990 144 2 NW 0 96.6 858
13:55:48 7 990 161 5 S 0 96.6 858
13:58:50 7 990 178 2 W 0 96.6 870
14:01:47 7 990 186 1 S 0 96.6 873
14:04:46 7 991 181 3 W 0 96.6 873
14:07:48 7 990 174 5 W 0 96.6 874
14:10:48 7 991 171 6 SW 0 96.6 876
14:13:47 7 990 170 2 SW 0 96.6 870
14:16:48 7 991 138 6 SW 0 96.6 875
14:19:46 7 991 147 3 W 0 96.6 875
14:22:48 7 991 165 3 SW 0 96.6 873
14:25:45 7 991 182 1 S 0 96.6 872
14:28:49 7 990 167 2 SW 0 96.6 879
14:31:49 7 991 168 2 S 0 96.6 876
14:34:47 7 991 165 2 W 0 96.6 882
14:37:50 7 991 184 6 NW 0 96.6 878
14:40:49 7 991 193 8 SO 0 96.6 881
14:43:48 7 991 172 1 S 0 96.6 872
14:46:45 7 991 182 7 S 0 96.6 869
14:49:46 7 991 177 1 SW 0 96.6 869
14:52:48 7 991 157 2 S 0 96.6 870
14:55:47 7 991 134 0 SW 0 96.6 873
14:58:48 7 991 134 1 SW 0 96.6 865
15:01:46 7 991 131 1 W 0 96.6 852
15:04:50 7 990 129 2 SW 0 96.6 841
15:07:46 7 991 124 3 N 0 96.6 852
15:10:46 7 991 130 1 SW 0 96.6 867
15:13:47 7 991 140 2 NW 0 96.6 871
15:16:46 7 991 146 3 W 0 96.6 876
15:19:48 7 991 145 3 SW 0 96.6 888
15:22:46 7 991 151 4 W 0 96.6 884
15:25:48 7 991 154 2 S 0 96.6 879
15:28:47 7 991 150 4 SW 0 96.6 870
15:31:48 7 991 120 5 W 0 96.6 863
15:34:48 7 991 115 4 SW 0 96.6 874
15:37:46 7 991 116 2 W 0 96.6 875
15:40:48 7 991 104 3 W 0 96.6 879
15:43:46 7 991 95 3 W 0 96.6 882
15:46:48 7 991 86 0 SW 0 96.6 882
15:49:45 7 991 77 0 W 0 96.6 884
15:52:48 7 991 76 0 W 0 96.6 889
15:55:47 7 991 63 2 SW 0 96.6 891
15:58:47 7 991 58 0 S 0 96.6 893
16:01:46 7 991 52 0 S 0 96.6 894
16:04:46 7 991 51 0 S 0 96.6 899
16:07:49 6 991 53 0 SW 0 96.6 891
16:10:47 6 991 61 1 NW 0 96.6 898
16:13:46 6 991 55 0 S 0 96.6 896
16:16:47 6 991 46 0 SO 0 96.6 898
16:19:46 6 991 27 4 S 0 96.6 902
16:22:49 6 991 18 0 NO 0 96.6 908
16:25:46 6 991 16 0 W 0 96.6 898
16:28:47 6 991 12 0 S 0 96.6 899
16:31:48 6 991 9 0 S 0 96.6 906
16:34:46 6 991 6 0 S 0 96.6 925
16:37:47 6 991 5 0 NW 0 96.6 934
16:40:49 6 991 5 0 NW 0 96.6 932
16:43:47 6 991 4 0 NW 0 96.6 917
16:46:47 6 991 0 0 NW 0 96.6 931
16:49:48 6 991 0 0 NW 0 96.6 920
16:52:47 6 991 0 0 NW 0 96.6 934
16:55:46 6 991 0 0 SO 0 96.6 939
16:58:48 5 991 0 0 SO 0 96.6 960
17:01:48 5 991 0 0 SO 0 96.6 956
17:04:46 6 991 0 0 S 0 96.6 967
17:07:45 6 991 0 1 S 0 96.6 969
17:10:48 6 991 0 0 SW 0 96.6 957
17:13:44 6 991 0 1 S 0 96.6 947
17:16:47 6 991 0 0 SO 0 96.6 943
17:19:47 6 991 0 0 SW 0 96.6 932
17:22:49 6 991 0 0 SO 0 96.6 927
17:25:48 6 991 0 0 SO 0 96.6 933
17:28:46 6 991 0 0 SO 0 96.6 934
17:31:46 6 991 0 0 SO 0 96.6 934
17:34:48 6 991 0 0 SO 0 96.6 923
17:37:46 6 991 0 0 SO 0 96.6 914
17:40:46 6 991 0 0 SO 0 96.6 914
17:43:45 6 991 0 0 SO 0 96.6 922
17:46:45 6 991 0 0 SO 0 96.6 928
17:49:48 6 991 0 0 SO 0 96.6 943
17:52:45 6 991 0 0 SO 0 96.6 946
17:55:45 6 991 0 1 SO 0 96.6 934
17:58:45 6 991 0 0 S 0 96.6 929
18:01:45 6 991 0 0 S 0 96.6 932
18:04:45 6 991 0 0 S 0 96.6 954
18:07:46 6 991 0 1 S 0 96.6 969
18:10:45 6 991 0 0 S 0 96.6 975
18:13:47 6 991 0 1 SO 0 96.6 974
18:16:47 6 991 0 0 SO 0 96.6 982
18:19:46 6 991 0 0 S 0 96.6 991
18:22:48 6 991 0 0 SO 0 96.6 988
18:25:45 6 991 0 1 S 0 96.6 981
18:28:48 6 991 0 1 SO 0 96.6 976
18:31:47 6 991 0 1 SO 0 96.6 984
18:34:45 6 991 0 1 SO 0 96.6 987
18:37:47 6 991 0 2 SO 0 96.6 984
18:40:45 6 991 0 2 S 0 96.6 995
18:43:47 6 991 0 0 SW 0 96.6 990
18:46:45 6 991 0 3 SO 0 96.6 980
18:49:48 6 991 0 2 SO 0 96.6 978
18:52:47 6 991 0 0 SW 0 96.6 975
18:55:46 6 991 0 1 SO 0 96.6 981
18:58:46 6 991 0 0 S 0 96.6 974
19:01:47 6 991 0 4 SO 0 96.6 970
19:04:45 6 991 0 0 SO 0 96.6 972
19:07:46 6 991 0 0 SW 0 96.6 973
19:10:45 6 991 0 0 S 0 96.6 990
19:13:46 6 991 0 0 S 0 96.6 990
19:16:46 6 991 0 0 S 0 96.6 987
19:19:46 6 991 0 0 O 0 96.6 978
19:22:47 6 991 0 0 S 0 96.6 1001
19:25:47 6 991 0 0 SO 0 96.6 1008
19:28:48 6 991 0 0 NW 0 96.6 1025
19:31:49 6 991 0 0 NW 0 96.6 1026
19:34:47 6 991 0 0 NW 0 96.6 1036
19:37:49 6 991 0 0 NW 0 96.6 1024
19:40:47 6 991 0 0 NW 0 96.6 1031
19:43:51 6 991 0 0 NW 0 96.6 1025
19:46:45 6 991 0 0 NW 0 96.6 1019
19:49:45 6 991 0 0 S 0 96.6 1002
19:52:45 6 991 0 0 S 0 96.6 1021
19:55:47 5 991 0 0 NO 0 96.6 1041
19:58:46 5 991 0 0 NO 0 96.6 1033
20:01:49 5 991 0 0 NO 0 96.6 1015
20:04:46 5 991 0 0 SO 0 96.6 998
20:07:48 5 991 0 1 SO 0 96.6 999
20:10:49 5 991 0 1 SO 0 96.6 987
20:13:47 5 991 0 1 SO 0 96.6 981
20:16:48 5 991 0 4 SO 0 96.6 984
20:19:44 5 991 0 3 S 0 96.6 960
20:22:46 5 991 0 1 SO 0 96.6 964
20:25:46 5 991 0 0 SO 0 96.6 950
20:28:45 5 991 0 0 SO 0 96.6 951
20:31:49 5 991 0 2 SW 0.2575 96.6 943
20:34:47 6 991 0 2 S 0 96.6 948
20:37:46 6 991 0 4 S 0 96.6 951
20:40:48 6 991 0 3 SO 0 96.6 949
20:43:47 6 991 0 0 SO 0.2575 96.6 948
20:46:46 6 991 0 2 SO 0 96.6 948
20:49:48 6 991 0 0 SO 0 96.6 951
20:52:46 6 991 0 2 SO 0 96.6 942
20:55:45 6 991 0 3 S 0 96.6 939
20:58:46 6 991 0 0 SO 0 96.6 676
21:01:47 6 991 0 2 SO 0 96.6 457
21:04:47 6 991 0 1 SO 0 96.6 620
21:07:47 6 991 0 1 SO 0 96.6 696
21:10:49 6 991 0 0 SO 0 96.6 708
21:13:48 6 991 0 0 NO 0 96.6 710
21:16:46 6 991 0 0 0 96.6 689
21:19:45 6 991 0 0 NO 0 96.6 675
21:22:45 6 991 0 0 N 0 96.6 670
21:25:47 6 991 0 0 O 0 96.6 669
21:28:47 6 991 0 0 O 0 96.6 674
21:31:50 6 991 0 0 NO 0 96.6 680
21:34:47 6 990 0 0 NO 0 96.6 682
21:37:44 6 991 0 0 O 0 96.6 679
21:40:47 6 991 0 1 SO 0 96.6 679
21:43:46 6 990 0 0 O 0 96.6 679
21:46:47 6 991 0 0 O 0 96.6 676
21:49:46 6 991 0 1 O 0 96.6 673
21:52:46 6 991 0 0 O 0 96.6 673
21:55:46 6 991 0 2 O 0 96.6 680
21:58:47 6 990 0 5 SO 0 96.6 683
22:01:47 6 991 0 2 SO 0 96.6 675
22:04:45 6 991 0 1 O 0 96.6 678
22:07:45 6 991 0 2 S 0 96.6 682
22:10:47 6 990 0 3 SO 0 96.6 679
22:13:45 6 991 0 0 SO 0 96.6 678
22:16:48 6 991 0 0 SO 0 96.6 682
22:19:45 6 991 0 1 O 0 96.6 688
22:22:45 5 991 0 0 O 0 96.6 433
22:25:45 5 991 0 0 O 0 96.6 433
22:28:48 5 991 0 0 SO 0 96.6 430
22:31:46 5 991 0 3 SO 0 96.6 436
22:34:47 5 991 0 1 SO 0 96.6 439
22:37:47 6 991 0 2 SO 0 96.6 442
22:40:48 6 991 0 0 SO 0 96.6 440
22:43:47 6 991 0 0 S 0 96.6 436
22:46:46 6 991 0 0 SO 0 96.6 438
22:49:47 6 991 0 5 S 0.2575 96.6 439
22:52:45 6 991 0 5 S 0 96.6 445
22:55:46 6 991 0 1 SO 0 96.6 448
22:58:48 6 991 0 2 SO 0 96.6 448
23:01:47 6 991 0 6 S 0 96.6 439
23:04:46 6 991 0 3 SO 0 96.6 439
23:07:45 6 991 0 0 S 0 96.6 437
23:10:46 6 991 0 4 S 0 96.6 452
23:13:46 6 991 0 4 S 0 96.6 455
23:16:46 6 991 0 1 S 0 96.6 448
23:19:47 6 991 0 0 SO 0 96.6 439
23:22:46 6 991 0 0 SO 0 96.6 439
23:25:46 6 991 0 0 O 0 96.6 450
23:28:44 6 991 0 1 0 96.6 454
23:31:49 6 991 0 0 SO 0 96.6 462
23:34:45 6 991 0 0 NO 0 96.6 456
23:37:46 6 991 0 0 SO 0 96.6 448
23:40:46 6 991 0 0 O 0 96.6 433
23:43:45 6 991 0 0 O 0 96.6 439
23:46:48 6 991 0 0 NW 0 96.6 446
23:49:49 6 991 0 0 NW 0 96.6 439
23:52:45 6 991 0 1 NO 0 96.6 442
23:55:47 6 991 0 2 SW 0 96.6 442
23:58:47 6 991 0 1 SW 0 96.6 448

Letzte Änderung : 22-Jul-2022
Copyright Jens Köhler, Wolfsburg, Obere Dorfstraße 10d